Powrót do katalogu

COSMOS 2251 DEB

AktywnyLEO
NORAD 34620·DEBRIS·🇷🇺 Russia

Wystrzelony Jun 16, 1993 z Plesetsk Cosmodrome

Loading…

Następne Przeloty (najbliższe 24 godziny)

TLE

ŚwieżeSource: Space-Track

Epoka: Sep 14, 2026, 03:15 UTC

1 34620U 93036WR  26257.13548623  .00004757  00000-0  10955-2 0  9995
2 34620  74.0487  61.1030 0074129  31.1726 329.3801 14.53934059908243

Śledź COSMOS 2251 DEB w czasie rzeczywistym z AllMySat

Download on the App Store